Location: Chin
(49.7667°N, 112.4500°W)
Time: 15:44:17
(UTC+00:00)

X-37B - Visible Passes

Search period start: 02 December 2021 00:00
Search period end: 12 December 2021 00:00
Orbit: 330 x 341 km, 45.0° (Epoch: 20 November)

Date Brightness Start Highest point End Pass type
(mag) Time Alt. Az. Time Alt. Az. Time Alt. Az.
09 Dec 2.6 01:11:43 10° SSW 01:13:29 15° SSE 01:13:51 15° SSE visible
10 Dec 2.2 01:31:17 10° SW 01:33:25 23° S 01:33:25 23° S visible
11 Dec 2.8 00:17:09 10° SSW 00:18:55 15° SSE 00:20:40 10° ESE visible
11 Dec 2.4 01:51:19 10° WSW 01:52:57 24° SSW 01:52:57 24° SSW visible
